Regional Weather Roundup
Issued by NWS

Home | Current Version | Previous Version | Text Only | Print | Product List | Glossary On
Versions: 1 2 3 4 5 6 7 8 9 10 11 12 13 14 15 16 17 18 19 20 21 22 23 24 25 26 27
000
ASUS45 KCYS 152310
RWRWY

WYOMING REGIONAL WEATHER ROUNDUP
NATIONAL WEATHER SERVICE CHEYENNE WY
400 PM MST FRI DEC 15 2017

NOTE:  "FAIR" INDICATES FEW OR NO CLOUDS BELOW 12,000 FEET
WITH NO SIGNIFICANT WEATHER AND/OR OBSTRUCTIONS TO VISIBILITY.

WYZ001-160000-
YELLOWSTONE NATIONAL PARK

CITY           SKY/WX    TMP DP  RH WIND       PRES   REMARKS
LK YELLOWSTONE   N/A     25  20  81 CALM      30.03F
W YELLOWSTONE  NOT AVBL

$$
WYZ002>013-054>058-071-098>099-160000-
NORTHERN WYOMING

CITY           SKY/WX    TMP DP  RH WIND       PRES   REMARKS
JACKSON        FAIR      27  17  66 S3        30.04F
CODY           FAIR      48  14  25 W15G25    29.81F
GREYBULL       FAIR      36  17  46 SE3       29.81F
WORLAND        FAIR      34  24  67 CALM      29.81F
SHERIDAN       FAIR      38  27  64 CALM      29.70S
BUFFALO        FAIR      48  15  26 S8        29.72F
GILLETTE       FAIR      45  19  35 SW14      29.71F
HULETT         FAIR      45  23  42 SW10      29.72F
NEWCASTLE      FAIR      37  23  56 CALM      29.76F

$$
WYZ014>020-022>026-101>103-160000-
CENTRAL WYOMING

CITY           SKY/WX    TMP DP  RH WIND       PRES   REMARKS
BIG PINEY      FAIR      38  12  34 CALM      30.03F
PINEDALE       FAIR      37  14  38 W10G17    30.02F WCI  30
DUBOIS         FAIR      36   7  30 N26G41    29.89F WCI  23
LANDER         FAIR      29  22  75 E6        29.86F WCI  23
RIVERTON       FAIR      27  20  75 S5        29.88F WCI  22
CASPER         FAIR      40  20  44 SW25G33   29.85F WCI  29
DOUGLAS        FAIR      47  18  31 SW6       29.82F

$$
WYZ021-027>030-104>119-160000-
SOUTHERN WYOMING

CITY           SKY/WX    TMP DP  RH WIND       PRES   REMARKS
EVANSTON       FAIR      41  10  28 W12       30.07F
FORT BRIDGER   FAIR      44  -2  14 W12G17    30.09F
ROCK SPRINGS   FAIR      43  -4  14 SW16      30.04F
DIXON          FAIR      39  11  31 SW10      30.11F WCI  32
RAWLINS        FAIR      37  16  42 SW8       30.00F WCI  31
SARATOGA       FAIR      36  19  51 N5        30.03F WCI  32
LARAMIE        FAIR      39  15  37 SW20      29.95F WCI  29
CHEYENNE       FAIR      48   9  20 W13       29.90S
TORRINGTON     FAIR      53  13  20 W23G38    29.80S
PINE BLUFFS    FAIR      52  10  19 W14       29.86F

$$




USA.gov is the U.S. government's official web portal to all federal, state and local government web resources and services.